User: anonymous   Login
Location: Mt. Chestnut Observatory
(40.9038°N, 79.9956°W)
Time: 17:55:13
(UTC-04:00)
Language:

Cosmos 2034 Rocket - Orbit

View from above orbital plane
View from above orbital plane
View from above satellite
View from above satellite

Ground track
Ground track

The orbit data is extracted from the following two-line orbital elements,

1 20150U 89059B   15121.83704067 -.00000022  00000-0 -37704-4 0  9995
2 20150 082.9368 310.7642 0027733 294.1610 195.7471 13.75599382293510
Epoch (UTC): 01 May 2015 20:05:20
Eccentricity: 0.0027733
inclination: 82.9368°
perigee height: 959 km
apogee height: 1000 km
right ascension of ascending node: 310.7642°
argument of perigee: 294.1610°
revolutions per day: 13.75599382
mean anomaly at epoch: 195.7471°
orbit number at epoch: 29351

The dashed part of the orbit path shows where the satellite is in the earth's shadow,  

DLR